www.pogodaiklimat.ru

ПОГОДА в Талсе, OK

  • Прогноз погоды в Талсе
  • Монитор погоды в Талсе
  • Климат в Талсе

АРХИВ ПОГОДЫ в Талсе

Время (UTC), дата Ветер
(напр.,м/с)
 
Видим.   Явления Облачность Т
(С)
Тd
(С)
f
(%)
Тe
(С)
Тes
(С)
Комфортность

P
(гПа)

Po
(гПа)
Тmin
(С)
Tmax
(С)
R
(мм)
SD
(см)
14:53 23.03 ЮВ  16 км  слабый дождь  10/8 1950 м
[средняя] 
+12.2  +7.2  71  +12  +12    1019.4  995.6         
15:10 23.03 ЮВ  3 км  сильный дождь  10/8 990 м
[средняя] 
+11.7  +7.2  74  +10  +11      996.3         
15:19 23.03 ЮВ  5 км  слабый дождь  10/5 1170 м
[средняя] 
+11.1  +7.8  80  +7  +7      995.0         
15:33 23.03 ЮВ  8
{11} 
14 км  слабый дождь  10/5 1110 м
[средняя] 
+11.1  +7.8  80  +7  +8      994.6         
15:53 23.03 ЮВ  14 км  слабый дождь  10/8 1650 м
[средняя] 
+11.1  +7.8  80  +8  +8    1018.4  994.6         
16:53 23.03 ЮВ  5
{9} 
16 км    10/10 1320 м  +12.2  +7.8  74  +10  +10    1017.6  994.0  +10.6  +12.8  3.8   
17:53 23.03 ЮВ  16 км    10/10 690 м  +13.9  +8.3  69  +12  +12    1016.5  993.0         
18:49 23.03 Ю  16 км    10/10 540 м  +13.0  +9.0  77  +11  +11      992.3         
18:53 23.03 Ю  16 км    10/10 540 м  +13.3  +9.4  77  +11  +11    1015.9  992.3         
19:53 23.03 Ю  16 км    10/10 420 м  +13.3  +10.6  84  +11  +11    1015.7  992.3      0.3   
20:28 23.03 Ю  16 км    10/10 420 м  +13.3  +10.0  80  +11  +11      992.6         
20:35 23.03 Ю  16 км    10/10 420 м  +13.3  +10.0  80  +11  +11      992.6         
20:53 23.03 Ю  16 км    10/10 420 м  +12.8  +9.4  80  +11  +11    1016.2  992.6         
21:53 23.03 ЮВ  16 км    10/10 390 м  +12.8  +9.4  80  +12  +12    1016.3  992.6         
22:22 23.03 ЮВ  16 км    10/10 420 м  +12.8  +9.4  80  +11  +11      992.3         
22:53 23.03 ЮВ  16 км    10/10 630 м  +12.2  +8.9  80  +10  +10    1015.8  992.3  +12.2  +13.9  0.3   
23:53 23.03 ЮВ  16 км    10/10 600 м  +12.2  +9.4  83  +10  +10    1015.8  992.3         
00:42 24.03 В  3 км  сильный дождь  10/10 600 м  +12.2  +9.4  83  +10  +10      992.3         
00:51 24.03 В  5 км  слабый дождь, дымка  10/8 660 м
[средняя] 
+12.0  +10.0  88  +9  +9      992.3         
00:53 24.03 В  8 км  слабый дождь, дымка  8/8 660 м
[средняя] 
+11.7  +9.4  86  +9  +9    1015.6  992.0         
01:11 24.03 ЮВ  16 км    5/5 480 м
[средняя] 
+11.7  +9.4  86  +9  +9      992.0         
01:53 24.03 ЮВ  4
{8} 
16 км    8/8 750 м  +13.3  +11.1  87  +11  +11    1015.8  991.6      5.3   
02:04 24.03 ЮВ  16 км    8/8 750 м  +13.9  +11.1  83  +12  +12      992.3         
02:53 24.03 Ю  16 км    8/8 420 м  +12.8  +10.6  86  +11  +11    1016.1  992.6         
03:20 24.03 нст  16 км    10/10 300 м  +12.8  +11.1  89  +12  +12      993.0         
03:33 24.03 С  16 км    10/10 240 м  +12.8  +11.1  89  +12  +12      993.0         
03:53 24.03   16 км    10/10 780 м  +12.8  +11.1  89  +12  +12    1016.4  993.0         
04:53 24.03 ЮВ  16 км    10/10 690 м  +13.3  +11.1  87  +12  +12    1015.7  992.3  +11.7  +13.9  5.3   
05:53 24.03 ЮВ  16 км    8/8 510 м  +12.8  +10.6  86  +11  +11    1016.3  992.3         
06:53 24.03 ЮВ  16 км    10/10 600 м  +12.8  +10.6  86  +11  +11    1016.2  992.0         
07:53 24.03 Ю  16 км    10/10 600 м  +13.3  +11.1  87  +12  +12    1015.4  991.3         
08:53 24.03 Ю  16 км    8/8 660 м  +13.3  +11.1  87  +12  +12    1015.0  991.0         
09:12 24.03 Ю  16 км    5/5 720 м  +13.3  +11.1  87  +12  +12      991.0         
09:53 24.03 Ю  16 км    ясно  +13.3  +11.1  87  +12  +12    1015.1  991.0         
10:53 24.03   16 км    10/10 990 м  +12.2  +10.6  90  +12  +12    1015.4  992.0  +12.2  +13.3     
11:53 24.03 ЮВ  16 км    10/10 660 м  +13.3  +11.7  90  +13  +13    1015.7  992.3         
12:53 24.03 Ю  16 км    10/10 1440 м  +13.9  +12.2  89  +14  +14    1015.9  992.3         
13:30 24.03   16 км    10/10 450 м  +15.0  +12.2  83  +15  +15      992.6         
13:45 24.03   16 км    10/10 330 м  +15.0  +12.8  87  +15  +15      992.6         
13:53 24.03   16 км    10/10 330 м  +15.0  +12.8  87  +15  +15    1016.6  992.6         
14:53 24.03 З  16 км    10/10 300 м  +16.7  +13.9  84  +17  +17    1016.8  992.6         
15:53 24.03 нст  16 км    10/10 330 м  +17.8  +13.9  78  +18  +18    1016.8  992.6         
16:14 24.03 СЗ  14 км    10/10 270 м  +17.2  +13.9  81  +17  +17      992.6         
16:53 24.03 нст  13 км    10/10 270 м  +16.1  +13.3  83  +16  +16    1016.7  992.6  +12.2  +18.3     
17:44 24.03 СЗ  14 км    10/10 300 м  +16.1  +12.8  81  +16  +16      992.6         
17:53 24.03 нст  13 км    10/10 300 м  +16.7  +13.3  80  +17  +17    1016.6  992.6         
18:53 24.03 З  16 км    5/5 420 м  +18.3  +12.8  70  +18  +23    1016.4  992.3         
19:53 24.03 З  16 км    ясно  +19.4  +12.2  63  +21  +32  комфорт  1016.0  992.0         

 

Местоположение метеостанции Jones Jr. Airport: широта 36.0425 долгота -95.9894 высота над уровнем моря 194 м.

В архиве по умолчанию представлена погода в Талсе за последние 1-2 суток. Обновление информации о фактической погоде в базе происходит ежечасно! Архивные данные за месяц целиком и за предыдущие месяцы Вы можете получить, выбрав интересующий диапазон дат из раскрывающегося списка и нажав кнопку "Ввод!".

Внимание! Архив погоды МЕТАР в базе сайта хранится не более 60 дней. Нет смысла пытаться выбрать более раннюю дату.

Внимание! Время в таблицах - всемирное. Для получения местного времени необходимо прибавить поправку, которая в Талсе равна -6 ч.

Ветер - указаны скорость ветра в м/с и направление, откуда дует ветер: С - северный, СВ - северо-восточный, В - восточный, ЮВ - юго-восточный, Ю - южный, ЮЗ - юго-западный, З - западный, СЗ - северо-западный.
Видимость - горизонтальная дальность видимости в метрах или километрах. При видимости от 1 до 10 км при отсутствии осадков обычно наблюдается дымка, при ухудшении видимости до 1 км и менее - туман. В сухую погоду видимость может ухудшаться дымом, пылью или мглою.
Атмосферные явления - указаны явления, наблюдавшиеся в указанный момент времени.
Облачность - указаны через наклонную черту верхняя и нижняя облачность в баллах и высота нижней границы облаков в метрах. Внимание: облачность, как и прочие метеорологические величины в США измеряются автоматическими метеостанциями. Указанные значения в баллах носят условный характер и показывают процент времени, в течение которого, в среднем, лазерный луч высотомера отражался от облаков обратно.
T - Температура воздуха - температура, измеренная на высоте 2 м над землей.
Td - Температура точки росы - температура, при понижении до которой содержащийся в воздухе водяной пар достигнет насыщения.
f - Относительная влажность воздуха - влажноcть воздуха, измеренная на высоте 2 м над землей.
Te - Эффективная температура - температура, которую ощущает одетый по сезону человек в тени. Характеристика душности погоды. При расчете учитывается влияние влажности воздуха и скорости ветра на теплоощущения человека.
Tes - Эффективная температура на солнце - температура, которую ощущает человек, с поправкой на солнечный нагрев. Характеристика знойности погоды. Зависит от высоты солнца над горизонтом, облачности и скорости ветра. Ночью, в пасмурную погоду, а также при ветре 12 м/с и более поправка равна нулю.
P - Атмосферное давление - приведенное к уровню моря атмосферное давление.
Po - Атмосферное давление - измеренное на уровне метеостанции атмосферное давление.
Tmin - Минимальная температура - минимум температуры воздуха на высоте 2 м над землей.
Tmax - Максимальная температура - максимум температуры воздуха на высоте 2 м над землей.
R - Количество осадков - Количество выпавших осадков за 3 или 6 часов, мм.
SD - Снежный покров - Высота снежного покрова, см.